Weather History for KFWA - March, 2013

Change the Weather History Date:

Sunday, March 10, 2013

  Actual Average Record
Temperature  
Mean Temperature 48 °F 36 °F  
Max Temperature 58 °F 45 °F 73 °F (1925)
Min Temperature 37 °F 27 °F 0 °F (1984)
Degree Days  
Heating Degree Days 17 29  
Month to date heating degree days 338 307  
Since 1 July heating degree days 4729 4905  
Cooling Degree Days 0 0  
Month to date cooling degree days 0 0  
Year to date cooling degree days 0 0  
Moisture  
Dew Point 37 °F    
Average Humidity 71    
Maximum Humidity 85    
Minimum Humidity 57    
Precipitation  
Precipitation 0.02 in 0.08 in 1.53 in (2009)
Month to date precipitation 1.08 0.78  
Year to date precipitation 6.37 5.08  
Snow  
Snow 0.00 in 0.10 in 12.60 in (1964)
Month to date snowfall 11.1 1.8  
Since 1 July snowfall 31.5 30.2  
Snow Depth 1.00 in    
Sea Level Pressure  
Sea Level Pressure 29.89 in    
Wind  
Wind Speed 9 mph (SSE)    
Max Wind Speed 21 mph    
Max Gust Speed 29 mph    
Visibility 10 miles    
Events Rain    
T = Trace of Precipitation, MM = Missing Value Source: NWS Daily Summary

Daily Weather History Graph

Daily Weather History Graph

Search for Another Location

Airport or City:

Trip Planner

Search our weather history database for the weather conditions in past years. The results will help you decide how hot, cold, wet, or windy it might be!

Date:

Astronomy

Mar. 10, 2013 Rise Set
Actual Time 8:00 AM EDT 7:42 PM EDT
Civil Twilight 7:32 AM EDT 8:09 PM EDT
Nautical Twilight 7:01 AM EDT 8:41 PM EDT
Astronomical Twilight 6:28 AM EDT 9:13 PM EDT
Moon 7:00 AM EDT (3/10) 6:49 PM EDT (3/10)
Length of Visible Light 12h 36m
Length of Day
11h 42m
Waning Crescent, 2% of the Moon is Illuminated
Mar 10
Waning Crescent
Mar 11
New
Mar 19
First Quarter
Mar 27
Full
Apr 3
Last Quarter

Hourly Weather History & Observations

Time (EDT) Temp. Windchill Dew Point Humidity Pressure Visibility Wind Dir Wind Speed Gust Speed Precip Events Conditions
12:54 AM 39.0 °F 34.8 °F 33.1 °F 79% 29.99 in 10.0 mi SE 5.8 mph - N/A   Mostly Cloudy
1:54 AM 39.9 °F 35.8 °F 33.1 °F 77% 29.98 in 10.0 mi SE 5.8 mph - N/A   Mostly Cloudy
3:54 AM 37.0 °F 33.3 °F 33.1 °F 86% 29.96 in 10.0 mi ESE 4.6 mph - N/A   Overcast
4:54 AM 39.9 °F 34.5 °F 34.0 °F 79% 29.94 in 10.0 mi SE 8.1 mph - 0.01 in   Overcast
5:54 AM 43.0 °F 37.2 °F 33.1 °F 68% 29.94 in 10.0 mi SE 10.4 mph - N/A   Overcast
6:54 AM 42.1 °F 37.1 °F 33.1 °F 70% 29.96 in 10.0 mi SE 8.1 mph - N/A   Overcast
7:54 AM 42.8 °F 38.6 °F 33.8 °F 70% 29.95 in 10.0 mi SE 6.9 mph - N/A   Overcast
8:54 AM 42.1 °F 37.7 °F 34.0 °F 73% 29.96 in 10.0 mi SE 6.9 mph - N/A   Overcast
9:54 AM 42.1 °F 36.6 °F 34.0 °F 73% 29.95 in 10.0 mi SSE 9.2 mph - N/A   Overcast
10:54 AM 44.1 °F 39.0 °F 36.0 °F 73% 29.95 in 9.0 mi SSE 9.2 mph - N/A   Overcast
11:54 AM 48.0 °F - 37.0 °F 66% 29.94 in 9.0 mi South 11.5 mph - N/A   Overcast
12:54 PM 48.9 °F - 37.9 °F 66% 29.93 in 9.0 mi South 12.7 mph - N/A   Overcast
1:54 PM 51.1 °F - 41.0 °F 68% 29.91 in 9.0 mi South 8.1 mph - N/A   Mostly Cloudy
2:54 PM 55.0 °F - 43.0 °F 64% 29.90 in 9.0 mi South 10.4 mph - N/A   Overcast
3:54 PM 57.0 °F - 43.0 °F 59% 29.84 in 10.0 mi SE 8.1 mph - N/A   Overcast
4:54 PM 55.9 °F - 41.0 °F 57% 29.86 in 10.0 mi South 12.7 mph - N/A   Overcast
5:54 PM 55.0 °F - 41.0 °F 59% 29.84 in 10.0 mi SSE 9.2 mph - N/A   Overcast
6:54 PM 53.1 °F - 41.0 °F 64% 29.81 in 10.0 mi SE 9.2 mph - N/A   Overcast
7:54 PM 52.0 °F - 41.0 °F 66% 29.82 in 10.0 mi SE 9.2 mph - N/A   Overcast
8:54 PM 52.0 °F - 39.9 °F 63% 29.82 in 10.0 mi SE 10.4 mph - 0.00 in   Overcast
9:54 PM 51.8 °F - 39.2 °F 62% 29.79 in 10.0 mi SSE 8.1 mph - N/A Rain Light Rain
10:54 PM 53.1 °F - 39.0 °F 59% 29.78 in 10.0 mi SSE 18.4 mph 26.5 mph 0.01 in   Overcast
11:54 PM 52.0 °F - 39.9 °F 63% 29.78 in 10.0 mi South 12.7 mph - 0.00 in   Overcast
12:54 AM 50.0 °F - 39.9 °F 68% 29.75 in 10.0 mi SSE 9.2 mph - N/A   Overcast